Location: Newark
(44.6768°N, 22.5302°E)
Time: 14:01:50
(UTC+00:00)

CAS-6 - Pass Details

Date: 01 July 2022
Orbit: 613 x 634 km, 97.9° (Epoch: 19 August)

Event Time Altitude Azimuth Distance (km) Brightness Sun altitude
Exits shadow 21:39:00 21° 238° (WSW) 1,400 ? -21.1°
Maximum altitude 21:40:20 25° 266° (W) 1,277 ? -21.2°
Drops below altitude 10° 21:43:56 10° 321° (NW) 2,003 ? -21.3°
Sets 21:46:28 0° 335° (NNW) 2,911 ? -21.4°
